Weather History for St-Dizier, France

Change the Weather History Date:

Wednesday, October 24, 2012

  Actual Average Record
Temperature  
Mean Temperature 48 °F -  
Max Temperature 55 °F 49 °F 64 °F (1996)
Min Temperature 42 °F 39 °F 28 °F (2003)
Degree Days  
Heating Degree Days 16    
Moisture  
Dew Point 45 °F    
Average Humidity 89    
Maximum Humidity 100    
Minimum Humidity 72    
Precipitation  
Precipitation 0.00 in - - ()
Sea Level Pressure  
Sea Level Pressure 30.09 in    
Wind  
Wind Speed 5 mph ()    
Max Wind Speed 12 mph    
Max Gust Speed -    
Visibility 4.6 miles    
Events      
Averages and records for this station are not official NWS values.
T = Trace of Precipitation, MM = Missing Value Source: Averaged Metar Reports

Daily Weather History Graph

Daily Weather History Graph

Search for Another Location

Airport:

Trip Planner

Search our weather history database for the weather conditions in past years. The results will help you decide how hot, cold, wet, or windy it might be!

Date:

Astronomy

Oct. 24, 2012 Rise Set
Actual Time 8:14 AM CEST 6:33 PM CEST
Civil Twilight 7:42 AM CEST 7:05 PM CEST
Nautical Twilight 7:05 AM CEST 7:42 PM CEST
Astronomical Twilight 6:29 AM CEST 8:18 PM CEST
Moon 4:02 PM CEST (10/24) 2:28 AM CEST (10/24)
Length of Visible Light 11h 23m
Length of Day
10h 19m
Waxing Gibbous, 73% of the Moon is Illuminated
Oct 24
Waxing Gibbous
Oct 29
Full
Nov 7
Last Quarter
Nov 13
New
Nov 20
First Quarter

Hourly Weather History & Observations

Time (CEST) Temp. Windchill Dew Point Humidity Pressure Visibility Wind Dir Wind Speed Gust Speed Precip Events Conditions
12:00 AM 46.4 °F 45.2 °F 42.8 °F 87% 30.15 in 3.7 mi ESE 3.5 mph - N/A   Unknown
12:30 AM 44.6 °F - 42.8 °F 93% 30.15 in - Variable 2.3 mph - N/A   Unknown
1:00 AM 44.6 °F 43.1 °F 42.8 °F 93% 30.15 in - SSE 3.5 mph - N/A   Unknown
1:30 AM 42.8 °F - 42.8 °F 100% 30.15 in - SSE 2.3 mph - N/A   Unknown
2:00 AM 42.8 °F - 42.8 °F 100% 30.15 in - ENE 1.2 mph - N/A   Unknown
2:30 AM 42.8 °F 41.1 °F 42.8 °F 100% 30.15 in 2.8 mi East 3.5 mph - N/A   Overcast
3:00 AM 42.8 °F 41.1 °F 42.8 °F 100% 30.15 in - East 3.5 mph - N/A   Overcast
3:30 AM 42.8 °F 39.3 °F 42.8 °F 100% 30.12 in 2.8 mi East 5.8 mph - N/A   Mostly Cloudy
4:00 AM 46.4 °F 42.9 °F 44.6 °F 93% 30.12 in 3.1 mi East 6.9 mph - N/A   Overcast
4:30 AM 46.4 °F 42.4 °F 44.6 °F 93% 30.12 in 3.1 mi East 8.1 mph - N/A   Overcast
5:00 AM 46.4 °F 42.9 °F 44.6 °F 93% 30.12 in 3.1 mi East 6.9 mph - N/A   Overcast
5:30 AM 46.4 °F 42.9 °F 44.6 °F 93% 30.12 in 3.1 mi East 6.9 mph - N/A   Overcast
6:00 AM 46.4 °F 42.4 °F 44.6 °F 93% 30.12 in 3.1 mi East 8.1 mph - N/A   Overcast
6:30 AM 46.4 °F 42.4 °F 44.6 °F 93% 30.12 in 3.7 mi East 8.1 mph - N/A   Overcast
7:00 AM 46.4 °F 42.9 °F 44.6 °F 93% 30.09 in 3.7 mi East 6.9 mph - N/A   Overcast
7:30 AM 46.4 °F 41.9 °F 44.6 °F 93% 30.09 in 4.3 mi East 9.2 mph - N/A   Overcast
8:00 AM 46.4 °F 42.4 °F 44.6 °F 93% 30.09 in 4.3 mi East 8.1 mph - N/A   Overcast
8:30 AM 46.4 °F 41.9 °F 44.6 °F 93% 30.09 in 4.3 mi East 9.2 mph - N/A   Overcast
9:00 AM 46.4 °F 41.9 °F 44.6 °F 93% 30.12 in 5.0 mi East 9.2 mph - N/A   Overcast
9:30 AM 46.4 °F 41.9 °F 44.6 °F 93% 30.12 in 4.3 mi East 9.2 mph - N/A   Overcast
10:00 AM 46.4 °F 41.5 °F 44.6 °F 93% 30.12 in 3.1 mi East 10.4 mph - N/A   Overcast
10:30 AM 46.4 °F 41.1 °F 44.6 °F 93% 30.12 in 3.7 mi ESE 11.5 mph - N/A   Overcast
11:00 AM 46.4 °F 41.9 °F 44.6 °F 93% 30.12 in 3.7 mi ESE 9.2 mph - N/A   Overcast
11:30 AM 46.4 °F 41.5 °F 44.6 °F 93% 30.12 in 4.3 mi East 10.4 mph - N/A   Overcast
12:00 PM 48.2 °F - 44.6 °F 87% 30.12 in 4.3 mi East 8.1 mph - N/A   Overcast
12:30 PM 48.2 °F - 44.6 °F 87% 30.09 in 6.2 mi East 9.2 mph - N/A   Overcast
1:00 PM 50.0 °F - 44.6 °F 82% 30.09 in 6.2 mi East 8.1 mph - N/A   Overcast
1:30 PM 50.0 °F - 46.4 °F 87% 30.09 in 6.2 mi East 6.9 mph - N/A   Overcast
2:00 PM 51.8 °F - 46.4 °F 82% 30.09 in 6.2 mi East 6.9 mph - N/A   Overcast
2:30 PM 53.6 °F - 46.4 °F 77% 30.06 in 6.2 mi ENE 8.1 mph - N/A   Mostly Cloudy
3:00 PM 53.6 °F - 46.4 °F 77% 30.06 in 6.2 mi East 6.9 mph - N/A   Partly Cloudy
3:30 PM 53.6 °F - 46.4 °F 77% 30.06 in 4.3 mi ESE 8.1 mph - N/A   Unknown
4:00 PM 55.4 °F - 46.4 °F 72% 30.04 in 4.3 mi ESE 6.9 mph - N/A   Unknown
4:30 PM 55.4 °F - 46.4 °F 72% 30.04 in 5.6 mi ESE 5.8 mph - N/A   Unknown
5:00 PM 55.4 °F - 46.4 °F 72% 30.04 in 6.2 mi ESE 5.8 mph - N/A   Unknown
5:30 PM 55.4 °F - 46.4 °F 72% 30.04 in 6.2 mi ESE 5.8 mph - N/A   Unknown
6:00 PM 53.6 °F - 46.4 °F 77% 30.04 in 6.2 mi Variable 3.5 mph - N/A   Unknown
6:30 PM 51.8 °F - 46.4 °F 82% 30.04 in 6.2 mi ESE 2.3 mph - N/A   Unknown
7:00 PM 50.0 °F - 46.4 °F 87% 30.04 in 6.2 mi SSE 2.3 mph - N/A   Unknown
7:30 PM 50.0 °F - 44.6 °F 82% 30.04 in 5.6 mi ESE 2.3 mph - N/A   Unknown
8:00 PM 48.2 °F - 44.6 °F 87% 30.04 in 5.0 mi ENE 1.2 mph - N/A   Unknown
8:30 PM 48.2 °F - 46.4 °F 93% 30.04 in 3.7 mi East 2.3 mph - N/A   Unknown
9:00 PM 46.4 °F - 42.8 °F 87% 30.04 in - East 2.3 mph - N/A   Unknown
9:30 PM 46.4 °F - 44.6 °F 93% 30.04 in 2.8 mi East 2.3 mph - N/A   Unknown
10:00 PM 44.6 °F - 44.6 °F 100% 30.04 in - SE 1.2 mph - N/A   Unknown
10:30 PM 44.6 °F - 42.8 °F 93% 30.04 in - Variable 1.2 mph - N/A   Unknown
11:00 PM 44.6 °F - 42.8 °F 93% 30.04 in - Calm Calm - N/A   Unknown
11:30 PM 42.8 °F - 42.8 °F 100% 30.01 in - Calm Calm - N/A   Unknown